Wind_Speed
20 20 20 21 23 24 26 27 27 27 27 27 28 28 28 28 27 26 25 23 22 20 20 21 21 21 20 20 21 23 25 27 27 26 24 22 19 17 15 13 14 16 16 16 15 15 14 12 10 9 7 5 4 3 3 4 6 8 12 7 13 17 14 15 13 13 13 13 13 11 11 11 9 8 6 6 5 4 8 9 7 7 8 10 14 19 19 16
22 21 21 22 23 24 26 27 28 29 29 28 28 29 29 30 29 29 28 27 25 23 22 21 22 22 21 21 21 22 25 27 29 29 27 24 22 20 17 15 14 16 17 17 17 16 15 13 11 9 7 6 5 4 2 3 4 6 8 5 11 14 14 15 14 14 11 11 13 11 11 10 9 8 6 6 5 5 7 10 10 9 8 8 13 18 19 17
23 23 23 23 23 24 25 26 28 29 30 30 29 29 30 31 31 31 31 29 28 26 24 23 23 23 23 22 22 23 24 26 30 31 30 28 25 23 20 18 16 16 17 18 17 16 14 11 10 9 8 7 6 5 3 2 2 4 5 3 8 13 14 14 15 15 11 11 13 12 12 9 8 7 7 6 6 6 7 11 13 12 9 9 13 17 18 17
24 25 24 24 24 24 25 26 27 28 29 30 31 30 30 31 32 33 33 32 30 29 27 25 24 24 24 24 23 24 24 26 28 30 31 31 28 26 24 21 19 17 16 16 16 15 13 11 11 10 10 9 8 7 5 3 1 2 2 1 5 11 14 14 15 15 13 12 13 14 14 10 8 7 8 7 6 8 7 9 13 15 13 12 14 17 17 16
26 26 26 26 26 26 26 26 27 28 29 30 31 31 31 31 32 34 35 34 33 31 30 28 27 25 25 25 25 25 25 26 27 29 31 32 31 29 27 25 22 19 16 16 16 16 15 14 14 12 12 11 10 9 7 5 3 2 1 2 3 8 12 14 14 14 14 13 12 14 15 12 10 8 8 7 6 9 9 9 12 15 16 16 16 17 17 17
27 27 28 28 28 27 27 27 27 28 28 30 31 32 32 31 32 33 35 35 35 33 32 31 29 27 26 25 25 26 26 27 27 28 30 32 33 32 30 28 25 22 18 16 16 17 17 17 16 15 14 14 12 11 9 7 4 3 2 2 2 3 9 13 13 13 13 14 13 13 14 13 11 9 9 8 6 8 9 9 9 12 15 17 18 18 17 17
27 28 28 29 29 29 29 28 28 28 28 29 31 32 32 32 32 33 35 35 35 35 34 33 32 30 28 27 26 26 27 28 28 28 28 30 32 34 33 31 28 26 22 18 16 18 19 19 19 18 17 15 14 12 11 9 6 5 4 3 3 2 5 11 13 12 13 14 13 12 12 13 12 9 10 10 7 8 9 9 8 10 12 15 17 18 17 17
28 29 29 30 30 30 30 30 29 29 29 29 30 31 32 32 33 33 34 35 34 35 36 35 34 32 30 28 27 27 28 28 29 29 29 29 31 33 35 34 31 29 26 22 19 19 20 21 21 21 19 17 16 15 13 11 8 7 6 5 4 3 6 10 12 12 13 13 12 11 12 13 11 8 10 11 8 8 9 10 9 9 10 12 16 18 17 17
29 30 30 31 31 31 31 31 30 30 29 29 30 31 32 32 33 33 34 34 34 34 36 37 36 35 33 30 28 28 28 29 29 30 29 29 30 32 35 36 35 33 29 26 23 21 21 23 24 24 22 20 18 17 15 13 10 8 9 7 5 5 6 9 11 12 13 14 14 12 11 12 11 8 8 10 9 8 9 10 11 10 10 11 15 18 18 18
31 31 32 32 32 32 32 32 31 30 29 29 30 30 31 32 33 33 33 33 33 33 35 37 37 36 35 33 30 29 28 28 29 30 30 30 30 31 33 35 37 36 33 30 27 24 24 25 25 24 23 22 20 18 17 15 12 11 11 9 6 6 6 7 9 10 11 13 15 13 12 12 12 10 9 9 9 9 9 10 11 10 11 11 13 17 18 18
32 32 32 32 32 32 32 32 31 30 30 29 29 29 30 31 32 32 33 32 31 32 35 36 37 37 36 34 32 30 29 29 29 30 30 31 31 31 32 34 36 37 36 33 31 30 29 27 24 23 23 23 21 20 19 16 14 14 13 10 9 8 6 7 7 7 8 10 14 14 12 13 14 12 11 10 9 10 10 11 11 10 11 12 13 16 18 18
33 32 32 31 31 31 31 31 30 29 29 28 27 28 28 29 30 31 31 31 30 31 33 35 36 36 36 35 34 33 31 29 29 29 30 31 32 32 32 33 35 37 38 37 36 35 33 28 25 25 24 23 24 23 21 18 16 16 14 12 11 10 8 8 8 8 7 9 15 16 14 15 15 14 12 10 9 10 10 11 12 10 11 12 13 15 17 17
32 31 30 30 29 29 29 30 29 28 27 27 26 26 27 27 28 29 29 29 28 29 30 32 35 36 36 36 35 33 30 28 29 29 30 32 32 32 32 32 33 35 38 40 41 39 36 33 30 27 23 24 26 25 23 19 17 17 16 13 12 11 10 9 9 9 8 9 13 16 15 15 16 15 13 10 9 10 9 10 12 11 11 13 14 15 17 17
31 30 28 28 27 27 27 27 27 27 26 26 25 25 25 26 26 27 27 26 26 27 28 30 33 35 36 36 34 32 31 30 31 31 32 33 33 33 34 33 32 34 37 40 42 42 39 38 34 28 24 25 26 26 24 20 19 19 17 15 13 10 11 11 10 8 7 7 10 15 17 16 16 15 13 10 9 10 10 10 11 11 11 12 14 15 16 17
30 28 27 26 25 25 26 26 26 26 26 25 25 24 24 24 24 24 24 24 25 26 27 28 31 33 34 34 33 33 33 33 33 33 33 34 34 35 35 35 34 34 36 38 41 41 39 38 35 31 28 26 26 26 25 22 20 19 18 17 14 10 12 13 11 8 6 5 6 14 20 17 17 17 15 13 11 10 11 10 11 11 11 12 14 15 16 17
28 27 25 25 24 24 25 25 25 25 25 24 24 24 23 24 23 23 22 23 24 25 26 27 29 30 31 32 33 35 35 35 35 34 34 34 35 36 36 37 36 36 36 37 38 39 38 38 36 34 31 28 27 26 25 23 21 19 19 18 14 12 13 13 12 9 7 6 3 10 18 17 16 16 16 16 13 11 11 11 10 11 11 11 13 15 16 16
26 25 24 24 23 23 23 23 23 24 24 23 22 23 23 23 22 21 21 22 23 24 25 27 27 28 29 30 33 36 36 36 36 35 35 35 36 37 37 37 38 37 37 36 37 37 37 37 37 36 34 31 29 27 25 23 20 19 19 18 15 14 14 14 12 10 10 10 7 8 14 15 14 16 17 17 15 13 12 11 11 11 11 11 12 14 16 17
25 24 23 23 22 22 22 22 22 22 22 22 21 22 22 22 21 20 20 21 21 22 24 25 26 27 28 30 33 35 35 35 35 35 35 35 36 37 38 38 38 38 37 36 36 36 36 37 38 38 37 35 31 27 23 21 20 19 19 19 17 16 16 16 15 14 14 14 12 11 13 13 13 15 18 17 15 15 14 13 12 12 11 11 12 14 15 17
24 23 22 22 21 21 21 21 21 21 21 21 21 21 21 20 20 20 20 20 21 22 23 24 25 26 27 28 30 32 32 32 33 33 33 35 36 37 38 39 38 38 38 36 36 36 36 37 38 38 38 36 33 28 24 23 23 23 22 21 20 19 19 19 19 18 18 16 14 12 12 13 13 14 18 17 16 16 15 14 13 13 13 12 12 13 13 14
23 22 21 21 21 21 21 21 20 20 20 20 19 19 19 19 19 19 20 20 20 20 21 23 24 25 26 26 28 29 29 30 31 32 33 35 36 37 39 39 39 38 37 37 36 36 37 37 37 36 35 35 33 31 28 26 25 24 23 21 21 22 21 21 21 21 20 18 15 13 12 13 14 15 19 19 16 15 14 13 13 12 12 12 12 12 12 12
22 21 20 20 21 21 21 20 20 19 19 18 18 18 18 18 18 19 19 20 20 19 20 22 23 24 25 25 26 27 28 28 30 32 33 34 36 37 38 39 39 37 36 37 38 37 37 37 35 33 32 35 36 35 33 29 26 24 23 22 22 24 24 24 24 22 21 19 16 15 14 13 14 15 17 17 14 13 14 14 14 13 13 12 12 13 13 12
22 21 20 20 20 20 20 20 19 18 17 17 16 16 16 16 17 18 18 19 19 19 20 20 21 23 23 24 25 26 26 27 29 30 32 33 34 36 37 37 37 36 36 37 38 38 36 34 32 32 34 36 38 38 36 33 28 26 25 24 23 24 26 26 24 22 21 20 18 17 16 15 15 15 15 16 15 15 16 16 16 16 15 14 13 13 13 12
21 20 20 19 20 20 20 19 18 17 16 15 14 13 13 15 16 17 17 18 18 19 20 20 20 21 21 22 24 26 26 27 28 29 30 32 33 35 35 36 36 36 36 36 37 37 34 31 32 35 37 38 39 39 38 36 31 29 27 25 25 25 26 25 23 21 19 18 18 19 19 18 17 17 16 17 18 18 18 18 16 16 16 16 15 15 15 14
20 19 19 19 19 19 19 18 17 16 14 12 11 10 10 11 14 15 16 17 18 19 19 19 19 19 21 22 24 26 27 28 28 28 29 30 32 33 34 35 36 36 37 36 36 35 32 31 34 37 38 39 40 40 40 38 34 31 29 27 26 26 26 25 23 21 20 19 18 19 20 19 17 17 15 17 19 19 19 19 16 15 16 15 15 17 17 18
19 18 18 18 18 18 17 17 15 13 12 10 8 7 6 8 11 13 15 16 17 18 18 17 18 19 20 21 23 25 26 27 28 29 29 30 30 31 33 35 35 36 37 36 36 34 32 34 37 38 39 40 41 41 41 40 36 33 31 30 28 27 27 27 25 23 21 20 20 19 18 17 17 17 16 18 21 22 21 20 17 16 15 14 13 15 16 16
17 17 17 17 17 17 17 16 14 12 11 9 6 4 4 5 8 11 13 14 15 16 16 16 17 18 19 21 23 24 24 25 27 29 31 31 32 32 33 34 35 35 36 37 36 33 34 37 38 38 39 40 40 40 40 40 38 35 33 33 32 29 28 27 25 23 21 21 23 23 19 14 15 17 17 17 20 23 23 21 18 16 16 15 14 15 14 13
16 16 17 16 16 16 16 15 14 13 10 7 4 2 3 4 7 9 10 11 12 13 15 16 17 18 19 20 22 24 24 24 25 28 30 31 33 34 34 34 35 36 36 37 36 33 34 37 38 38 38 39 39 38 37 39 39 36 35 36 34 31 29 27 26 23 21 23 25 26 24 18 15 15 16 16 19 22 23 21 18 16 17 17 16 14 14 13
16 16 16 16 16 16 16 15 15 13 10 6 2 1 4 5 6 8 8 8 10 11 14 16 16 17 18 19 20 23 24 25 25 27 28 30 31 33 33 33 35 36 37 37 35 33 35 37 37 38 38 38 37 36 36 38 38 36 36 36 34 32 30 29 29 26 23 25 26 26 26 23 18 15 13 14 17 19 20 20 19 17 17 18 18 16 15 15
15 15 16 16 16 16 15 15 14 12 9 6 3 3 4 5 7 9 9 10 11 11 13 15 16 17 18 19 20 21 23 25 26 27 28 30 30 31 32 33 35 37 37 37 35 35 38 39 39 39 39 37 36 36 37 37 36 35 36 37 35 33 31 31 32 29 27 27 26 25 25 23 21 18 14 12 12 15 19 20 20 19 20 19 20 19 17 16
13 14 15 15 15 15 14 14 13 12 10 9 7 5 4 6 8 8 9 11 11 11 13 15 15 16 17 19 20 20 22 24 26 27 29 30 30 30 32 34 35 36 37 37 37 37 40 40 40 40 38 37 36 37 37 36 35 36 38 38 37 36 34 33 32 31 31 30 26 25 24 23 22 20 18 15 13 14 18 21 19 16 19 21 22 21 19 17
12 12 13 14 13 13 13 13 12 12 11 10 9 7 7 7 6 6 8 9 8 9 12 13 14 14 16 18 18 19 20 22 24 26 27 29 31 32 32 33 34 35 37 37 38 39 40 40 40 38 36 35 36 38 38 38 38 39 41 41 40 39 37 36 34 34 35 32 28 27 25 25 23 21 20 20 18 17 18 19 17 12 15 21 22 21 20 19
12 11 12 12 12 12 12 11 11 11 11 10 10 9 8 7 5 5 7 6 6 8 9 11 12 12 12 14 15 17 20 21 21 23 25 27 29 31 32 32 34 34 35 37 39 40 40 39 37 35 34 35 37 39 39 40 42 43 44 43 43 42 41 40 39 39 37 32 30 29 28 27 25 23 24 24 23 22 21 21 19 17 18 20 22 22 22 22
11 11 10 10 10 11 10 9 9 9 9 8 8 9 8 6 4 3 4 4 5 7 7 9 10 9 10 12 12 14 16 17 18 20 23 26 28 29 31 32 33 34 35 36 38 39 39 38 36 34 34 36 39 39 39 41 44 45 46 46 45 45 44 43 43 42 38 32 31 32 32 30 27 27 27 25 24 23 23 23 23 23 23 23 23 23 24 25
10 10 10 9 8 8 8 8 8 8 7 5 5 7 8 5 2 2 3 4 6 7 7 8 8 8 10 12 13 13 14 15 17 19 20 24 28 29 31 32 32 33 34 36 38 39 38 37 35 34 36 37 38 38 39 41 44 46 46 46 46 45 44 43 42 41 36 32 32 33 34 32 29 29 27 24 24 23 23 23 23 24 24 24 24 23 25 26
10 10 9 7 6 6 6 6 6 6 5 5 5 5 6 4 1 2 2 4 5 6 7 8 8 9 12 14 15 15 15 14 16 18 19 23 26 28 31 32 32 32 34 35 37 38 38 37 35 35 36 36 36 38 39 42 45 47 47 48 47 45 44 41 39 38 34 33 34 36 35 31 27 28 27 25 25 24 23 22 22 22 21 21 23 23 24 26
9 9 8 6 6 5 5 5 5 5 4 5 5 5 5 5 3 2 1 4 5 5 5 6 6 9 12 15 15 15 14 14 15 17 19 21 24 27 29 30 31 32 33 34 35 36 37 36 36 36 36 36 36 38 39 41 45 48 49 49 47 45 43 42 41 39 36 36 38 39 36 30 26 28 29 27 27 26 24 23 21 21 20 20 22 23 24 25
8 8 7 5 5 4 4 4 5 4 4 5 5 5 6 7 4 3 2 4 5 5 5 5 5 8 13 16 15 14 14 15 16 18 20 22 24 27 29 30 31 32 33 33 34 35 36 36 36 37 36 35 36 37 39 41 44 48 49 49 47 45 45 44 44 43 40 39 40 40 37 33 29 29 29 29 29 28 26 24 22 22 21 21 22 24 25 25
7 8 7 5 4 4 3 3 3 3 4 4 5 5 6 6 5 4 4 5 6 5 6 6 5 8 14 16 15 15 15 16 18 20 21 23 24 26 28 29 30 31 32 33 33 34 35 35 36 37 36 34 35 37 39 41 44 46 47 47 47 47 46 46 46 45 43 42 40 39 37 35 34 31 29 30 30 29 28 25 24 23 22 22 23 24 25 25
7 7 7 5 4 4 3 3 2 3 4 4 4 4 4 4 3 2 4 6 6 5 5 6 6 8 12 15 15 16 16 16 18 19 20 21 22 24 26 28 29 30 32 33 33 34 35 35 36 36 35 34 35 37 40 41 44 46 47 47 47 46 46 45 46 46 44 42 40 37 34 33 34 32 30 30 29 28 27 26 25 24 23 22 23 23 24 25
7 7 7 6 5 5 5 4 3 5 5 4 3 4 5 4 2 1 3 7 8 7 7 7 7 8 11 15 16 18 19 18 18 17 16 17 18 20 24 27 28 29 31 32 33 33 34 36 36 35 35 35 35 37 40 42 43 46 48 47 47 46 46 45 46 46 45 43 41 39 34 30 32 33 31 31 29 28 27 25 24 23 23 23 22 22 23 25
6 7 6 6 6 5 5 4 4 5 6 5 4 5 5 4 3 3 1 5 8 9 10 9 8 8 11 15 16 18 20 19 18 16 13 13 16 18 21 25 27 28 30 31 32 33 34 35 35 34 35 36 37 37 40 41 43 45 47 47 46 47 47 47 47 47 47 46 43 41 37 32 29 30 31 32 30 28 27 25 23 22 22 23 23 22 23 25
6 6 6 6 6 5 4 3 3 5 6 5 4 5 5 3 3 3 2 1 6 10 11 11 10 9 11 14 16 18 19 18 18 17 14 14 15 17 20 23 26 29 30 31 32 33 34 35 35 34 35 37 38 38 39 41 42 44 46 47 45 46 48 48 48 47 46 47 45 42 41 39 34 31 31 32 31 28 27 26 25 24 23 22 24 24 25 25
7 7 6 6 6 4 3 3 3 4 5 4 4 5 4 3 2 2 3 2 3 8 11 13 14 13 13 15 16 17 18 18 19 17 16 16 16 17 19 22 25 28 30 31 32 33 34 34 34 33 34 37 39 38 40 41 42 43 46 48 47 47 48 49 48 46 44 45 46 43 42 42 40 36 34 34 33 30 28 26 25 25 24 24 24 25 26 25
8 9 8 7 6 4 3 3 2 3 4 3 3 4 3 3 3 2 2 2 1 4 8 12 13 13 14 16 16 17 17 18 20 20 19 19 19 19 19 21 24 27 29 30 30 32 33 33 33 32 33 37 39 38 39 40 42 42 43 47 49 49 49 49 49 48 45 44 46 45 43 42 41 40 38 37 37 35 32 29 27 26 26 25 24 24 25 26
9 9 8 7 7 5 5 5 3 2 3 3 4 4 3 3 4 2 1 1 0 2 4 8 10 10 13 15 16 17 18 18 19 21 22 21 21 20 20 20 22 24 27 28 28 30 31 31 33 32 32 36 39 38 39 40 41 43 43 44 47 49 50 50 49 49 47 46 46 45 44 42 40 40 39 40 41 40 37 35 33 31 28 26 25 23 23 25
9 9 8 8 7 6 7 7 5 2 2 4 5 5 4 3 3 3 2 1 1 2 3 6 8 9 11 12 13 16 19 20 20 21 22 23 22 21 20 20 21 23 26 28 28 29 29 30 34 34 32 36 39 39 40 40 40 42 43 43 45 47 49 50 50 49 48 47 46 45 43 42 41 40 39 40 41 41 40 38 36 35 32 29 27 25 23 25
8 8 8 8 8 6 7 8 5 3 3 4 5 4 4 4 3 4 3 2 1 2 3 5 7 9 10 10 11 13 17 20 22 23 22 23 24 22 21 20 21 22 24 27 29 30 28 28 32 34 33 35 40 43 43 41 40 41 42 43 43 44 47 49 50 49 48 48 47 45 42 40 40 40 40 40 40 40 40 39 37 36 34 32 31 28 26 26
9 8 8 8 7 6 6 7 6 4 3 4 4 3 3 3 4 4 4 2 2 2 4 6 8 9 10 10 11 12 13 16 20 24 25 25 24 23 22 21 21 22 22 25 28 31 30 28 29 31 30 32 37 42 44 43 41 40 41 43 43 43 45 47 48 48 48 48 47 45 42 39 38 40 41 40 39 37 36 36 36 35 34 34 34 33 31 31
11 10 8 8 7 5 5 6 5 4 4 4 3 3 2 3 4 5 4 3 2 3 4 6 8 9 10 11 11 13 13 14 15 18 22 26 26 24 24 23 23 22 22 22 25 30 33 32 31 31 31 31 33 36 39 40 40 41 41 41 42 43 44 45 46 47 47 48 48 47 44 42 41 41 42 40 39 37 36 36 35 34 33 34 35 35 35 35
11 10 9 8 7 5 4 5 6 5 4 5 5 2 1 2 4 4 4 3 3 3 4 5 6 7 8 8 9 12 14 14 13 12 15 19 23 25 25 25 25 25 24 24 24 26 31 34 35 34 33 34 37 38 38 37 37 38 40 40 41 41 42 43 44 45 46 46 47 48 47 46 44 43 43 42 40 39 38 37 36 34 34 34 34 36 36 36
10 9 8 7 7 5 5 5 7 6 6 7 6 2 1 2 3 4 3 3 3 3 3 3 4 5 6 6 6 8 12 13 13 12 12 14 17 21 24 25 26 26 26 26 26 26 28 32 36 37 37 36 37 39 41 41 39 37 36 37 38 38 39 41 42 43 45 45 45 47 46 46 45 44 43 42 41 40 39 38 36 35 34 33 33 35 35 35
10 8 6 6 6 6 6 6 7 7 7 8 6 2 1 3 4 3 3 2 2 2 3 3 3 4 5 5 5 5 8 11 12 12 12 13 13 16 20 22 23 23 23 24 25 26 27 28 33 36 38 38 38 36 37 40 42 41 40 38 38 37 37 38 39 41 43 43 44 46 46 45 45 45 45 43 42 40 39 37 36 35 34 32 32 32 32 31
Wind_Direction
293 289 284 278 272 269 267 267 267 267 264 261 257 255 253 252 252 252 252 252 249 247 245 245 244 242 238 230 223 219 218 215 213 215 217 217 215 217 218 214 215 211 208 211 212 211 209 211 212 211 206 209 239 269 317 336 351 14 12 19 141 141 140 147 152 150 146 145 147 148 140 128 115 107 101 88 69 92 104 108 129 145 159 162 152 146 142 146
295 291 288 283 278 273 270 268 268 268 268 266 262 258 254 252 251 250 249 250 249 247 244 243 242 241 238 234 228 221 219 217 216 216 217 217 215 216 217 216 219 216 210 212 213 211 210 210 213 214 207 208 229 247 283 319 360 27 15 37 126 136 140 143 150 149 145 146 145 144 141 134 127 125 114 91 80 98 111 117 128 134 149 167 151 143 142 145
296 293 289 285 281 277 273 269 267 266 266 267 265 262 258 255 252 250 248 247 247 247 245 242 241 240 237 234 231 225 220 218 218 218 217 218 217 216 217 214 218 219 215 215 216 214 211 212 217 217 212 213 222 228 239 268 6 47 21 32 124 140 140 136 144 151 150 148 145 139 140 142 142 136 119 104 97 103 118 125 127 126 138 157 144 138 140 144
296 294 291 287 284 280 275 271 267 264 263 263 264 263 261 258 255 251 248 246 246 246 245 243 240 239 237 234 231 228 223 219 220 219 218 219 217 217 218 215 216 220 218 218 218 217 214 216 219 217 214 214 218 216 216 232 221 100 48 26 140 146 144 138 144 154 155 151 150 146 147 153 159 153 131 123 120 119 126 134 133 129 134 143 137 135 140 145
298 295 292 290 286 283 278 273 268 264 261 260 260 261 260 258 255 253 250 247 245 245 245 244 242 239 236 234 231 229 226 222 221 220 219 219 218 217 218 216 215 217 217 216 216 216 215 217 219 219 216 214 215 212 207 220 221 154 144 216 174 155 152 147 147 156 156 155 161 160 155 154 164 164 135 122 119 123 131 140 140 136 137 141 137 137 143 147
299 296 293 290 287 284 281 276 271 266 262 258 257 258 258 256 255 253 251 248 246 245 244 244 243 240 237 234 231 228 226 224 223 221 219 218 218 218 218 217 216 216 216 213 212 214 215 217 219 220 218 215 215 213 206 208 212 175 170 216 199 169 161 153 153 161 164 164 166 170 164 155 161 159 137 126 114 118 128 139 144 139 139 141 139 140 146 149
298 295 292 290 287 284 281 278 274 269 264 260 257 256 256 255 254 252 251 248 245 244 244 243 243 241 238 235 232 229 226 225 224 223 220 219 218 218 218 218 217 216 215 211 208 211 214 216 219 221 219 216 215 215 209 202 203 184 177 212 202 182 165 156 159 167 175 174 167 173 172 161 158 152 145 139 120 117 128 137 145 144 141 142 139 141 147 150
298 294 291 288 286 284 282 279 275 271 267 262 258 256 255 255 253 252 251 249 246 243 242 242 242 241 239 236 234 231 226 224 224 223 221 219 218 218 218 217 217 217 215 211 208 209 212 215 219 221 220 217 215 215 211 202 201 193 189 209 206 179 157 158 167 172 179 185 177 172 174 171 162 152 148 141 124 122 135 140 143 150 150 143 140 140 146 150
297 294 291 288 285 283 281 279 277 274 270 265 261 258 255 255 254 252 251 249 246 243 241 240 240 240 239 237 234 231 228 225 224 223 221 220 218 217 217 216 216 217 215 214 212 211 213 216 218 219 219 219 216 215 213 205 201 208 208 208 208 197 174 170 177 177 177 187 190 174 168 178 171 162 154 141 128 127 141 143 140 152 159 150 144 144 148 152
298 295 291 288 285 283 281 279 278 276 272 268 263 260 257 255 255 253 251 249 246 243 240 239 238 238 238 237 234 232 230 227 225 223 221 220 219 217 217 216 216 216 215 214 214 213 214 217 218 218 219 221 219 216 217 210 205 214 219 216 215 218 205 184 177 174 174 185 192 178 167 179 172 167 165 146 133 132 141 143 141 153 164 160 151 148 150 154
301 296 292 289 287 284 282 280 278 277 274 269 265 261 258 256 255 254 252 250 246 243 240 238 237 237 236 236 234 232 230 228 225 223 221 220 219 218 217 215 215 215 215 214 214 214 215 217 219 220 219 221 221 220 218 213 212 216 221 225 223 228 219 189 179 177 175 183 188 180 174 176 168 166 171 159 146 142 142 141 142 154 167 166 156 150 151 154
303 298 295 291 289 286 284 281 279 277 274 270 266 262 259 256 254 254 253 251 248 244 241 238 236 236 235 235 233 231 229 228 226 224 221 219 219 219 218 217 215 214 213 213 214 216 217 216 217 219 217 220 222 222 219 213 217 220 222 228 227 230 218 191 189 195 194 194 189 183 179 175 168 167 171 170 157 148 146 143 142 154 171 169 158 151 151 155
305 301 297 294 291 288 285 282 280 276 273 269 265 262 259 256 254 253 252 251 249 245 241 238 235 234 234 233 232 231 228 225 224 223 220 219 218 218 218 218 216 215 214 213 214 215 216 214 215 216 215 218 221 222 221 214 217 223 223 227 230 235 230 201 189 198 208 204 191 185 180 175 170 166 168 172 160 148 148 146 141 151 172 173 163 155 152 155
307 304 300 296 292 288 285 283 280 276 272 268 265 262 259 256 254 253 252 250 247 244 241 237 234 233 232 232 230 229 226 222 220 219 218 217 216 216 216 216 215 215 215 215 217 216 215 214 213 213 213 217 221 222 221 214 214 223 225 227 228 235 243 226 202 198 201 199 198 192 183 173 168 166 166 170 166 154 151 151 145 150 171 178 169 160 154 155
310 307 304 300 296 292 288 285 281 278 274 271 268 265 261 258 254 252 250 247 243 240 238 235 233 232 231 230 229 227 224 221 219 217 217 216 214 214 214 214 213 213 214 216 219 220 219 216 213 212 213 216 219 221 220 213 212 221 227 229 226 224 237 239 226 219 206 198 211 191 178 168 165 168 167 169 173 162 154 157 153 153 169 179 175 167 157 156
314 312 308 304 301 297 293 289 286 283 280 277 273 270 266 261 257 253 249 244 240 237 235 233 231 230 229 227 227 226 224 222 220 217 215 215 214 214 214 214 213 212 213 215 218 220 220 219 215 213 215 216 217 221 219 213 209 215 225 229 225 215 223 235 229 228 218 196 178 168 168 166 166 170 169 168 174 166 157 162 160 159 169 177 178 172 161 159
318 315 311 308 306 302 298 295 291 288 285 282 278 274 269 264 259 254 249 244 239 235 232 230 229 227 225 224 224 225 224 223 221 218 214 213 214 213 213 214 213 212 213 214 217 218 218 218 216 214 215 216 217 219 219 214 208 211 223 229 227 217 218 229 223 220 220 201 175 154 160 168 171 173 171 169 172 168 159 163 165 163 171 177 178 176 168 164
320 316 313 312 309 306 302 298 294 290 287 284 280 275 271 266 260 254 249 245 240 235 231 229 227 225 223 222 223 224 223 223 222 220 217 213 212 213 213 213 214 213 212 213 215 216 216 216 216 214 214 216 217 218 218 214 208 207 218 224 225 220 217 223 220 215 220 212 197 176 167 176 180 178 176 172 172 171 164 165 170 168 173 179 180 181 176 170
320 318 316 314 312 308 305 301 297 293 289 285 280 275 270 265 259 253 248 244 240 235 231 229 226 223 222 221 222 224 223 223 223 222 220 216 213 213 213 214 214 214 212 213 214 215 215 215 215 214 214 216 217 217 215 212 208 206 212 218 219 218 215 217 217 214 219 219 210 193 183 188 187 183 181 175 174 177 170 167 171 170 174 182 182 184 181 174
322 320 318 316 313 311 308 305 301 298 293 288 282 275 269 264 258 252 248 244 240 236 232 229 225 222 221 219 220 222 221 222 221 220 219 217 215 213 213 214 215 215 212 211 213 215 214 215 215 213 213 215 216 216 214 211 207 205 210 216 218 218 214 214 216 214 217 219 211 197 192 193 188 185 183 179 178 182 176 169 173 173 177 184 183 184 183 178
324 322 321 319 316 315 312 310 307 302 297 291 284 277 270 262 254 249 246 243 240 236 233 229 225 221 218 215 216 218 218 218 219 219 218 217 215 214 213 214 214 214 213 211 212 213 214 215 214 210 210 213 214 215 215 210 204 202 206 211 216 219 216 215 215 213 215 217 212 202 196 188 181 183 186 183 179 184 184 176 176 178 183 188 184 183 183 178
326 324 323 321 319 318 316 314 312 308 302 296 288 280 272 262 252 245 242 240 237 234 231 229 225 221 218 214 213 214 215 215 216 217 217 216 216 215 214 215 213 212 213 213 212 213 214 213 211 208 209 212 213 214 214 211 203 199 202 207 213 218 220 221 220 217 216 216 215 210 202 190 181 182 187 188 185 187 190 186 182 182 185 191 188 181 178 176
327 326 325 323 322 321 319 318 317 314 308 301 292 281 271 262 253 243 236 234 232 230 228 226 224 220 217 213 210 210 211 211 212 213 214 214 215 216 215 214 212 210 211 212 213 213 212 208 207 209 210 210 211 212 213 212 205 199 201 206 211 217 221 223 223 222 221 220 218 212 204 200 195 191 190 191 192 191 191 191 190 188 187 192 191 184 177 177
330 329 328 326 325 325 324 324 323 320 315 310 302 286 271 263 253 242 233 229 228 228 227 225 222 217 214 210 209 209 210 209 207 209 210 211 213 215 214 212 210 209 210 211 212 211 207 205 207 210 210 210 211 211 212 212 207 201 202 206 211 216 219 221 222 220 220 221 220 214 208 205 203 202 197 194 194 192 191 191 191 195 197 199 198 191 183 180
332 331 331 329 329 331 331 331 330 329 327 324 313 293 273 263 251 238 228 223 223 225 224 221 218 216 212 209 209 209 210 209 206 205 206 207 210 212 213 212 210 208 209 210 210 208 204 205 208 209 210 211 212 211 211 211 208 203 204 208 212 215 218 220 221 218 217 218 219 218 216 210 208 207 201 196 195 192 191 189 192 201 204 202 204 202 195 186
333 332 332 332 335 338 339 339 341 345 344 333 317 294 266 249 235 225 218 214 216 218 217 214 213 212 210 208 208 207 207 208 207 206 205 205 206 208 210 210 209 208 207 208 208 205 204 206 208 209 211 213 214 213 212 211 210 205 206 211 213 214 216 219 220 219 218 219 219 219 219 213 209 208 202 198 199 197 193 190 195 203 203 198 199 205 204 196
334 333 334 335 340 345 345 348 354 359 354 341 320 278 226 214 207 203 202 203 205 207 209 208 207 207 208 208 207 205 204 203 204 206 207 207 206 206 207 207 206 207 207 207 205 203 206 209 209 210 211 213 215 215 213 213 212 207 209 214 215 214 215 217 217 216 218 221 222 221 221 215 210 209 203 200 203 203 197 195 197 200 199 194 192 199 206 201
333 334 335 339 345 350 352 357 5 7 2 352 328 197 167 170 173 175 180 182 186 193 199 202 203 204 205 205 207 208 206 202 201 203 205 208 209 208 207 205 205 206 206 207 203 200 206 209 209 209 210 212 213 213 213 214 213 209 211 216 217 216 216 218 218 215 217 222 223 222 223 220 214 210 204 203 208 207 202 200 200 197 195 191 187 193 203 202
334 334 337 342 349 355 359 7 13 15 15 23 43 121 144 147 148 155 160 159 165 179 189 195 201 200 199 202 204 206 207 205 203 201 201 205 208 209 207 204 205 205 205 205 201 201 207 208 208 209 210 209 208 209 211 212 211 209 213 216 217 218 219 221 222 218 217 221 222 221 221 220 217 213 208 209 210 208 205 199 195 196 196 191 188 191 198 200
333 335 337 345 352 357 4 14 21 23 28 40 55 80 103 121 133 146 155 154 159 173 183 190 197 198 196 200 202 203 206 206 205 203 201 202 203 206 208 206 205 205 205 203 200 203 209 209 209 210 209 206 204 206 208 208 206 208 213 215 215 217 219 222 223 222 221 220 220 220 217 213 212 212 211 212 208 204 201 190 179 188 197 193 190 191 195 198
332 335 338 346 355 360 7 18 25 28 34 44 56 69 87 108 122 140 151 153 161 177 187 190 196 199 196 197 199 200 204 206 207 205 203 201 201 203 206 207 206 205 204 202 201 205 210 211 211 210 208 206 204 204 204 203 202 207 213 215 215 216 217 218 219 221 222 219 218 220 218 212 207 205 208 210 208 205 201 189 175 180 193 192 191 191 194 197
329 334 338 346 355 2 9 21 29 31 36 49 62 72 85 101 114 138 151 153 165 181 196 201 203 203 195 194 197 199 202 205 206 205 203 201 202 204 204 206 206 205 203 202 202 205 209 211 212 209 207 206 205 204 202 200 201 206 212 213 214 215 216 218 219 222 221 218 219 221 221 216 205 202 207 209 209 208 208 205 197 191 188 187 191 194 196 198
324 331 338 347 357 5 11 22 34 36 40 52 68 75 80 92 114 157 173 173 176 185 202 211 213 205 186 185 193 198 201 201 201 204 203 200 200 204 206 206 206 204 202 200 202 205 207 210 210 208 207 207 207 206 203 201 202 207 213 215 215 215 216 218 221 223 221 218 220 222 223 219 208 205 209 210 211 212 212 213 208 201 195 191 194 196 197 199
319 326 335 347 358 5 11 23 37 39 37 39 57 71 76 89 129 258 242 209 197 197 205 214 217 205 184 175 173 178 188 195 197 198 200 202 201 204 207 208 207 205 202 200 202 204 205 207 207 207 208 208 208 208 205 202 203 207 213 217 219 219 220 222 224 226 224 221 222 223 223 222 213 209 210 210 214 215 213 212 209 207 206 202 200 197 197 200
313 319 329 344 354 1 11 23 35 37 28 15 23 49 65 77 82 313 251 205 199 201 209 216 218 203 185 172 165 167 174 185 193 192 195 202 204 205 209 209 206 206 204 201 201 202 203 203 203 205 208 208 207 207 205 202 202 205 211 216 219 221 222 224 227 228 224 221 224 226 225 223 217 213 210 209 214 217 214 212 208 205 208 211 210 204 198 201
306 311 321 336 345 349 2 17 27 28 16 8 13 22 29 34 32 7 229 193 188 197 212 217 212 199 183 169 162 164 172 179 189 193 195 200 203 205 207 208 206 205 205 203 201 201 201 201 202 203 206 207 206 205 205 204 203 204 209 215 219 221 221 222 225 227 222 218 222 226 225 221 215 215 213 209 212 216 216 216 213 206 203 209 215 212 206 204
295 300 312 325 332 333 346 4 15 15 4 5 10 13 13 8 351 337 303 221 206 204 207 210 208 194 180 168 159 163 174 180 187 194 196 199 203 205 205 206 206 204 203 202 201 201 200 200 201 202 204 206 205 205 205 204 204 206 210 214 217 219 221 221 223 226 224 220 221 225 225 220 215 217 216 212 210 214 218 219 221 218 209 205 208 213 212 206
282 289 302 308 313 316 323 343 354 352 354 358 4 9 9 359 340 321 300 261 245 227 205 204 207 191 177 168 164 169 176 183 189 192 195 198 202 205 205 204 204 203 201 201 201 201 199 199 201 202 202 203 205 206 206 205 204 206 209 213 215 218 221 223 224 226 226 224 222 225 226 220 214 215 216 215 212 215 220 222 223 222 214 204 203 208 211 208
269 277 289 291 295 297 296 307 316 322 334 346 353 357 357 360 351 303 269 248 247 244 219 205 196 192 180 169 171 178 179 186 191 191 195 200 203 206 206 204 202 201 200 199 200 200 198 199 200 201 201 202 203 206 207 206 205 205 206 210 214 218 221 225 227 229 230 228 224 223 226 222 213 210 211 215 215 215 221 224 221 218 212 206 205 207 209 210
264 272 286 293 296 297 299 303 312 315 312 315 339 349 347 1 19 335 247 225 224 224 221 213 197 196 190 179 179 184 184 187 190 192 200 206 207 208 207 205 203 201 200 199 199 199 198 199 200 200 200 201 202 205 207 207 207 206 206 208 211 215 219 223 227 231 233 232 228 223 223 219 211 207 210 215 217 215 216 219 219 216 213 211 213 214 213 213
265 271 286 296 293 293 298 303 314 311 297 298 337 346 340 354 16 9 310 214 216 213 217 220 210 204 200 191 190 190 189 191 193 197 205 209 210 210 206 205 204 201 200 200 199 198 197 199 200 199 199 200 201 204 207 208 207 206 207 208 210 214 218 221 225 230 233 235 233 226 221 216 210 210 212 216 217 215 215 218 217 214 212 215 221 224 223 222
273 269 277 283 280 280 291 306 328 314 295 300 333 328 320 338 8 8 13 214 216 217 219 221 219 217 210 202 200 198 197 200 203 204 208 210 212 209 205 205 204 201 201 200 199 198 197 198 199 199 199 200 201 204 207 209 209 208 207 208 209 213 217 221 225 230 234 237 237 232 227 222 218 215 215 216 217 216 218 221 218 213 213 217 223 227 228 229
275 266 264 269 275 279 294 316 336 319 299 302 313 302 303 317 334 358 12 4 233 227 226 226 228 229 221 215 214 212 210 212 212 212 215 217 217 212 207 207 206 203 201 202 201 200 198 198 199 200 200 201 201 204 208 209 210 210 210 209 210 212 216 220 223 227 232 237 239 238 235 231 227 225 221 218 218 219 221 223 221 219 221 224 228 230 231 231
276 268 265 270 279 280 273 280 304 312 306 303 289 282 276 278 284 318 21 27 302 253 237 230 233 230 220 219 224 224 223 221 218 220 224 224 223 219 213 211 210 206 203 203 204 202 201 201 200 200 201 202 203 204 208 211 211 212 213 213 212 213 216 218 222 225 228 233 237 239 240 238 235 234 230 225 223 225 227 229 230 229 231 233 235 235 234 232
282 278 277 279 282 276 263 260 269 296 300 281 261 252 247 261 281 299 331 64 331 270 239 228 227 222 214 216 225 229 230 228 225 226 230 232 232 229 222 216 215 212 208 206 206 205 205 204 202 202 203 203 205 206 208 211 212 213 215 216 215 215 216 218 221 224 226 229 233 236 239 241 240 238 235 231 229 231 235 238 240 239 238 238 238 238 237 232
284 280 280 278 277 275 272 271 271 264 251 242 235 240 258 280 295 294 280 253 217 217 220 223 223 219 213 214 222 228 230 231 232 233 233 235 238 238 231 223 219 217 212 210 209 207 207 206 204 205 205 204 206 210 210 210 213 214 215 217 218 217 218 219 221 224 226 228 231 234 237 241 242 241 239 238 236 237 239 242 243 242 241 238 236 239 241 233
285 278 275 273 272 271 275 278 276 255 228 226 225 240 273 295 294 287 280 274 242 208 208 214 219 224 222 217 219 225 228 230 233 236 236 236 239 240 236 227 221 220 217 214 213 211 209 209 208 209 210 206 206 210 212 211 212 215 217 218 219 219 219 221 222 224 226 228 230 233 235 238 241 243 244 245 246 245 243 242 242 242 241 237 235 239 242 235
290 285 278 274 272 266 269 276 277 266 246 224 210 227 271 289 281 274 277 274 245 211 209 210 213 223 228 225 222 222 227 231 233 236 236 235 237 238 236 229 221 218 219 219 218 216 214 214 214 214 214 213 210 211 213 212 211 214 218 219 220 221 221 222 223 225 227 228 229 230 232 234 238 243 246 247 247 247 245 243 243 242 241 238 237 239 241 238
294 292 286 280 273 260 265 279 278 272 265 247 227 217 247 282 279 274 277 278 254 232 226 220 215 220 227 232 231 226 224 229 234 235 235 234 234 234 234 231 225 220 221 224 224 221 219 220 221 218 216 219 220 219 218 216 214 214 218 221 222 222 223 224 225 226 227 228 229 229 230 232 235 239 243 245 245 244 243 244 244 243 242 241 239 240 242 241
295 292 288 282 272 257 256 268 263 255 255 257 256 245 237 270 281 282 288 292 277 259 244 234 227 224 226 234 241 231 222 222 227 227 228 230 230 231 231 232 232 232 233 234 233 229 224 223 223 222 218 219 222 224 224 225 222 216 216 220 224 225 225 226 226 227 227 228 229 230 230 232 233 235 238 241 243 244 243 245 246 247 248 246 243 241 242 241
297 291 285 278 271 257 249 255 254 246 241 250 256 259 262 270 271 275 279 282 288 290 283 266 253 242 232 229 237 231 222 223 228 228 229 230 228 227 227 229 233 237 239 239 238 234 229 226 225 224 224 223 224 223 221 224 228 226 221 222 226 228 229 229 228 229 229 227 228 229 229 230 232 233 235 238 242 244 246 247 249 251 254 252 247 243 242 242
302 296 283 273 267 258 249 250 252 246 245 253 258 240 213 253 259 257 259 268 291 310 307 287 269 260 248 232 224 220 219 225 232 237 242 243 237 227 222 223 226 230 232 234 233 231 229 230 228 226 227 230 233 233 225 220 224 228 226 225 227 229 230 231 231 232 231 229 228 228 229 231 233 233 234 237 240 244 247 249 250 253 253 249 244 241 241 240
Height
5844 5843 5842 5842 5841 5841 5840 5840 5839 5839 5839 5840 5840 5841 5842 5842 5843 5844 5844 5845 5846 5847 5847 5848 5849 5851 5853 5854 5855 5856 5858 5860 5861 5862 5864 5866 5868 5870 5871 5873 5873 5874 5875 5876 5877 5879 5880 5881 5882 5882 5883 5884 5885 5886 5887 5887 5886 5886 5886 5885 5884 5886 5888 5889 5891 5892 5893 5894 5896 5897 5898 5898 5898 5899 5899 5899 5900 5901 5900 5900 5901 5903 5904 5904 5903 5903 5904 5906
5841 5840 5840 5839 5838 5838 5838 5838 5837 5837 5837 5837 5838 5838 5839 5839 5840 5841 5841 5842 5843 5844 5845 5846 5847 5848 5850 5852 5853 5855 5856 5858 5859 5860 5862 5865 5867 5868 5870 5872 5872 5873 5875 5875 5876 5878 5879 5880 5882 5883 5884 5884 5885 5886 5887 5887 5887 5886 5887 5887 5887 5888 5889 5890 5892 5893 5894 5895 5896 5897 5898 5898 5898 5899 5900 5900 5901 5902 5902 5901 5903 5904 5904 5905 5904 5904 5905 5907
5838 5838 5837 5836 5835 5835 5835 5835 5835 5835 5835 5835 5835 5835 5836 5836 5837 5837 5838 5839 5841 5842 5843 5844 5844 5846 5847 5849 5851 5853 5854 5856 5857 5858 5861 5863 5865 5867 5868 5870 5871 5872 5874 5875 5876 5877 5879 5881 5882 5883 5884 5884 5885 5886 5887 5887 5887 5887 5888 5888 5889 5889 5890 5891 5893 5894 5895 5896 5897 5898 5899 5899 5899 5900 5900 5900 5901 5902 5902 5902 5903 5904 5905 5906 5906 5905 5907 5908
5836 5835 5834 5833 5833 5832 5831 5831 5831 5831 5832 5832 5832 5832 5833 5833 5834 5834 5835 5836 5837 5839 5840 5841 5842 5843 5845 5846 5848 5850 5852 5854 5854 5856 5859 5861 5863 5865 5867 5869 5870 5871 5873 5875 5876 5877 5879 5881 5882 5883 5884 5884 5885 5885 5887 5887 5887 5887 5888 5889 5890 5890 5890 5891 5893 5894 5896 5897 5898 5898 5899 5900 5900 5900 5900 5900 5901 5902 5903 5903 5904 5904 5905 5906 5906 5907 5908 5909
5833 5832 5831 5830 5829 5829 5828 5828 5827 5827 5828 5828 5828 5828 5829 5830 5830 5830 5831 5833 5834 5836 5837 5838 5840 5841 5842 5844 5845 5847 5849 5851 5852 5854 5856 5858 5861 5863 5865 5867 5869 5871 5872 5874 5875 5877 5879 5880 5881 5882 5883 5884 5884 5885 5886 5887 5887 5888 5889 5890 5890 5891 5891 5892 5893 5894 5896 5897 5898 5897 5898 5899 5900 5900 5900 5900 5901 5902 5903 5904 5904 5904 5905 5906 5907 5907 5909 5910
5830 5829 5828 5827 5826 5825 5825 5824 5824 5824 5824 5824 5824 5825 5825 5825 5826 5826 5827 5829 5831 5833 5834 5835 5837 5838 5840 5841 5843 5844 5847 5848 5850 5852 5854 5856 5858 5861 5863 5865 5868 5870 5871 5873 5875 5876 5877 5879 5880 5881 5882 5883 5884 5885 5886 5887 5888 5888 5889 5890 5891 5892 5892 5893 5893 5894 5896 5896 5897 5898 5898 5899 5900 5900 5900 5901 5901 5902 5903 5904 5905 5906 5906 5906 5907 5908 5910 5911
5827 5826 5825 5823 5823 5822 5821 5821 5820 5820 5820 5820 5820 5821 5821 5822 5822 5822 5822 5824 5827 5829 5831 5832 5834 5835 5837 5839 5840 5842 5844 5846 5848 5850 5852 5854 5856 5858 5861 5863 5866 5868 5870 5872 5874 5875 5876 5877 5878 5880 5881 5882 5883 5884 5886 5887 5888 5888 5890 5891 5892 5892 5893 5893 5893 5894 5896 5896 5897 5898 5899 5899 5900 5901 5901 5901 5901 5902 5903 5905 5906 5907 5907 5907 5907 5908 5910 5912
5824 5822 5821 5820 5819 5818 5817 5817 5816 5816 5816 5816 5816 5817 5817 5818 5818 5818 5818 5820 5823 5825 5827 5828 5830 5832 5834 5836 5837 5839 5841 5843 5845 5847 5849 5852 5854 5856 5858 5861 5863 5866 5868 5870 5872 5873 5874 5875 5877 5878 5880 5881 5883 5884 5885 5886 5888 5889 5890 5891 5892 5892 5892 5892 5893 5894 5895 5897 5897 5899 5900 5900 5901 5902 5902 5901 5901 5902 5903 5905 5906 5908 5909 5909 5909 5909 5911 5913
5820 5819 5817 5816 5815 5814 5813 5813 5812 5812 5812 5812 5812 5812 5813 5814 5814 5814 5815 5816 5818 5821 5822 5824 5826 5828 5830 5832 5835 5836 5838 5840 5842 5844 5847 5850 5851 5853 5855 5858 5861 5863 5866 5868 5870 5872 5873 5874 5874 5876 5878 5880 5882 5883 5884 5886 5888 5888 5889 5891 5892 5892 5891 5891 5892 5893 5895 5897 5898 5899 5901 5901 5901 5902 5903 5903 5902 5903 5904 5905 5906 5908 5910 5910 5910 5910 5911 5913
5816 5815 5813 5812 5810 5809 5809 5808 5808 5808 5808 5808 5808 5808 5809 5810 5810 5811 5811 5812 5814 5816 5818 5820 5822 5824 5827 5829 5831 5833 5835 5837 5839 5842 5845 5847 5849 5851 5853 5855 5858 5860 5863 5866 5869 5870 5870 5871 5872 5875 5877 5879 5881 5883 5884 5885 5887 5887 5888 5890 5892 5892 5892 5892 5893 5894 5895 5897 5898 5899 5901 5901 5901 5903 5904 5904 5903 5904 5905 5905 5906 5908 5910 5911 5911 5911 5912 5913
5812 5810 5809 5807 5806 5805 5804 5804 5804 5803 5803 5803 5804 5804 5805 5805 5806 5807 5807 5808 5810 5812 5813 5815 5818 5820 5823 5826 5828 5830 5832 5835 5837 5839 5842 5844 5846 5848 5850 5853 5855 5858 5861 5864 5865 5866 5867 5869 5872 5875 5876 5878 5880 5881 5883 5885 5886 5886 5887 5890 5892 5892 5893 5894 5894 5895 5896 5896 5897 5899 5900 5901 5902 5904 5905 5904 5904 5905 5905 5905 5906 5908 5911 5912 5912 5912 5913 5914
5808 5806 5805 5803 5802 5801 5800 5799 5799 5799 5799 5799 5799 5799 5800 5801 5802 5802 5803 5805 5806 5808 5809 5812 5814 5816 5819 5822 5824 5826 5829 5832 5834 5837 5839 5841 5844 5846 5848 5850 5853 5855 5858 5860 5862 5863 5866 5869 5871 5873 5875 5877 5879 5879 5882 5885 5885 5885 5887 5889 5891 5893 5894 5895 5895 5894 5895 5896 5897 5898 5899 5900 5901 5903 5905 5905 5906 5906 5906 5906 5907 5909 5911 5912 5913 5913 5913 5914
5804 5802 5801 5799 5798 5797 5795 5794 5794 5794 5794 5794 5795 5795 5796 5797 5798 5798 5799 5801 5802 5804 5805 5807 5810 5812 5814 5817 5820 5823 5827 5829 5831 5834 5836 5838 5841 5843 5846 5848 5850 5853 5855 5856 5858 5860 5863 5867 5869 5871 5875 5876 5876 5878 5881 5884 5885 5884 5886 5888 5890 5892 5894 5896 5896 5895 5896 5896 5896 5897 5899 5900 5901 5903 5905 5906 5906 5906 5907 5907 5907 5909 5911 5913 5913 5913 5914 5914
5800 5798 5797 5796 5794 5793 5792 5791 5790 5790 5790 5790 5790 5791 5792 5793 5794 5795 5796 5797 5798 5800 5801 5803 5805 5807 5810 5813 5817 5820 5822 5825 5827 5829 5832 5835 5837 5840 5842 5845 5848 5850 5852 5854 5855 5857 5860 5863 5867 5871 5873 5873 5874 5877 5880 5884 5884 5883 5885 5887 5889 5891 5892 5894 5896 5896 5896 5896 5896 5897 5899 5900 5901 5903 5905 5906 5906 5907 5907 5908 5908 5909 5912 5914 5914 5914 5914 5915
5796 5795 5793 5792 5791 5789 5788 5788 5787 5786 5787 5787 5787 5788 5788 5789 5790 5791 5792 5793 5794 5795 5797 5799 5801 5803 5806 5809 5813 5815 5818 5820 5822 5825 5828 5831 5834 5836 5838 5841 5844 5846 5849 5851 5853 5856 5859 5863 5866 5869 5871 5872 5873 5875 5878 5882 5884 5883 5884 5886 5889 5891 5892 5892 5894 5896 5895 5895 5895 5895 5897 5900 5901 5903 5904 5905 5906 5906 5907 5908 5909 5910 5912 5914 5915 5915 5915 5916
5793 5792 5790 5789 5787 5786 5785 5785 5784 5784 5784 5784 5784 5785 5785 5786 5786 5787 5788 5789 5790 5791 5793 5795 5797 5800 5803 5806 5808 5810 5813 5815 5818 5821 5824 5827 5830 5833 5835 5837 5840 5842 5845 5848 5851 5855 5859 5862 5866 5868 5869 5871 5872 5874 5876 5881 5883 5883 5883 5884 5888 5891 5891 5891 5893 5894 5894 5895 5895 5895 5897 5900 5901 5902 5904 5905 5905 5906 5907 5909 5909 5910 5912 5914 5915 5916 5917 5917
5791 5789 5787 5786 5785 5784 5783 5782 5781 5781 5781 5781 5781 5781 5782 5782 5783 5784 5784 5785 5786 5788 5790 5792 5794 5797 5799 5802 5803 5805 5809 5812 5815 5818 5820 5823 5826 5830 5832 5835 5837 5839 5843 5846 5849 5853 5857 5860 5863 5866 5868 5869 5871 5873 5875 5879 5883 5884 5883 5883 5886 5890 5891 5891 5892 5894 5894 5894 5896 5896 5898 5899 5900 5901 5903 5904 5905 5905 5906 5908 5910 5910 5912 5914 5915 5916 5917 5918
5788 5786 5785 5783 5782 5781 5780 5779 5779 5778 5778 5778 5778 5778 5779 5779 5780 5781 5781 5782 5783 5785 5786 5788 5791 5793 5795 5797 5799 5802 5806 5809 5812 5816 5818 5821 5823 5826 5829 5831 5834 5837 5840 5844 5847 5850 5854 5857 5860 5863 5865 5867 5870 5873 5876 5879 5882 5883 5882 5882 5885 5888 5890 5891 5892 5893 5893 5893 5895 5896 5897 5899 5900 5901 5902 5904 5905 5905 5906 5907 5909 5910 5912 5914 5915 5916 5917 5918
5786 5784 5783 5781 5780 5779 5778 5777 5776 5775 5775 5775 5775 5775 5775 5776 5777 5778 5778 5779 5780 5782 5784 5786 5788 5790 5792 5794 5796 5799 5803 5807 5811 5814 5817 5819 5821 5823 5826 5829 5831 5834 5838 5842 5845 5848 5851 5854 5856 5860 5864 5867 5869 5872 5875 5877 5878 5880 5880 5881 5883 5886 5888 5889 5890 5892 5892 5892 5894 5896 5897 5898 5900 5901 5902 5904 5905 5905 5905 5906 5908 5910 5912 5913 5915 5916 5916 5917
5784 5783 5781 5779 5778 5777 5776 5775 5774 5773 5772 5772 5772 5772 5772 5773 5774 5775 5775 5776 5778 5779 5781 5783 5785 5787 5790 5792 5794 5797 5800 5804 5807 5810 5813 5816 5818 5820 5823 5826 5829 5832 5836 5839 5842 5845 5848 5851 5854 5859 5863 5866 5868 5870 5872 5874 5876 5878 5879 5880 5881 5883 5886 5887 5888 5890 5891 5892 5895 5897 5898 5899 5900 5901 5901 5903 5904 5906 5906 5907 5908 5910 5911 5913 5914 5915 5915 5916
5783 5781 5779 5778 5776 5775 5774 5772 5771 5770 5770 5769 5769 5769 5769 5770 5770 5771 5773 5774 5776 5777 5779 5781 5783 5785 5787 5790 5791 5794 5797 5801 5804 5807 5810 5813 5815 5818 5820 5823 5827 5831 5834 5837 5839 5842 5845 5849 5853 5858 5861 5863 5865 5867 5869 5871 5874 5876 5878 5879 5880 5881 5884 5885 5886 5889 5891 5893 5895 5896 5898 5899 5900 5901 5902 5904 5905 5907 5907 5907 5908 5910 5911 5912 5913 5914 5915 5916
5781 5780 5778 5776 5775 5773 5772 5770 5769 5768 5767 5766 5766 5766 5766 5767 5767 5768 5770 5772 5773 5775 5777 5779 5781 5783 5785 5788 5789 5791 5794 5797 5801 5804 5807 5810 5813 5816 5818 5822 5826 5829 5832 5834 5837 5840 5844 5848 5853 5855 5857 5859 5861 5863 5866 5869 5872 5875 5877 5878 5879 5880 5882 5884 5886 5889 5891 5893 5894 5895 5897 5899 5899 5900 5902 5903 5904 5905 5907 5907 5908 5909 5910 5912 5913 5914 5915 5916
5780 5779 5777 5775 5774 5772 5770 5769 5767 5766 5765 5764 5764 5764 5764 5764 5765 5766 5767 5769 5771 5772 5774 5776 5779 5781 5784 5786 5787 5788 5791 5794 5797 5801 5804 5808 5810 5814 5817 5820 5823 5826 5829 5832 5835 5839 5843 5847 5850 5851 5852 5855 5858 5860 5863 5866 5870 5873 5875 5877 5878 5879 5881 5883 5886 5888 5891 5892 5893 5894 5895 5897 5899 5900 5901 5902 5903 5905 5906 5907 5909 5910 5911 5912 5912 5914 5915 5916
5779 5778 5776 5774 5772 5771 5769 5767 5766 5765 5763 5763 5762 5762 5762 5762 5763 5764 5765 5767 5769 5770 5772 5775 5777 5779 5781 5783 5784 5786 5788 5791 5795 5798 5801 5805 5808 5811 5815 5817 5820 5823 5826 5830 5833 5837 5842 5844 5845 5846 5849 5851 5854 5857 5860 5863 5868 5871 5873 5875 5876 5877 5879 5882 5885 5887 5889 5891 5891 5893 5894 5896 5898 5900 5901 5903 5904 5905 5906 5907 5909 5910 5911 5912 5912 5913 5914 5915
5778 5777 5775 5774 5772 5770 5768 5766 5765 5763 5762 5761 5760 5760 5760 5760 5761 5762 5763 5765 5767 5769 5771 5773 5775 5777 5778 5780 5782 5784 5786 5789 5792 5795 5798 5802 5805 5809 5812 5814 5818 5821 5824 5827 5831 5835 5839 5840 5841 5843 5846 5849 5851 5854 5857 5861 5865 5869 5872 5873 5874 5876 5878 5880 5883 5885 5888 5889 5890 5892 5893 5895 5897 5899 5901 5902 5903 5904 5906 5907 5909 5910 5911 5912 5913 5913 5914 5915
5777 5776 5775 5773 5771 5769 5767 5766 5764 5762 5761 5760 5759 5759 5759 5759 5760 5761 5762 5763 5765 5767 5769 5771 5773 5775 5776 5778 5780 5783 5785 5787 5790 5793 5795 5798 5801 5805 5808 5812 5816 5818 5821 5825 5829 5833 5835 5835 5838 5840 5843 5846 5849 5853 5856 5859 5862 5867 5870 5870 5871 5874 5876 5878 5881 5884 5887 5888 5889 5890 5892 5894 5896 5897 5899 5901 5902 5903 5905 5906 5908 5910 5911 5912 5913 5913 5914 5915
5777 5775 5774 5772 5771 5769 5767 5765 5763 5762 5760 5760 5759 5758 5758 5758 5759 5759 5761 5762 5764 5766 5768 5769 5771 5773 5775 5777 5779 5781 5783 5785 5788 5791 5793 5796 5798 5801 5805 5809 5812 5816 5819 5822 5826 5830 5832 5833 5836 5838 5841 5844 5847 5852 5856 5858 5861 5865 5867 5867 5869 5872 5874 5877 5879 5882 5885 5886 5887 5888 5890 5893 5895 5896 5898 5900 5901 5902 5904 5906 5908 5910 5910 5911 5913 5914 5914 5915
5777 5775 5774 5772 5770 5769 5767 5765 5763 5762 5760 5759 5758 5758 5757 5758 5758 5759 5760 5761 5763 5765 5766 5768 5769 5771 5773 5775 5777 5779 5780 5783 5786 5788 5791 5794 5797 5800 5803 5807 5809 5813 5816 5820 5825 5828 5828 5830 5833 5836 5839 5842 5846 5851 5854 5857 5860 5864 5865 5866 5868 5870 5872 5874 5877 5880 5882 5883 5885 5887 5889 5892 5894 5896 5897 5898 5900 5902 5904 5906 5907 5909 5910 5910 5912 5913 5913 5914
5776 5775 5773 5771 5770 5768 5767 5765 5763 5762 5761 5760 5759 5758 5758 5758 5758 5759 5760 5761 5762 5763 5765 5767 5768 5770 5772 5773 5775 5777 5779 5781 5783 5786 5789 5792 5795 5798 5800 5803 5807 5810 5814 5818 5823 5825 5825 5827 5830 5833 5836 5840 5845 5848 5851 5855 5860 5862 5863 5864 5866 5868 5870 5872 5875 5878 5879 5880 5883 5886 5888 5891 5893 5895 5897 5898 5899 5901 5903 5904 5906 5907 5908 5909 5910 5912 5912 5914
5776 5775 5773 5771 5770 5768 5767 5766 5764 5763 5762 5761 5760 5760 5759 5759 5760 5760 5761 5762 5763 5763 5764 5766 5767 5768 5770 5772 5774 5775 5777 5779 5781 5784 5787 5789 5792 5795 5797 5800 5804 5807 5811 5816 5820 5821 5822 5825 5828 5831 5835 5839 5842 5845 5848 5854 5858 5859 5860 5861 5863 5865 5868 5870 5873 5876 5877 5879 5882 5884 5886 5888 5891 5893 5895 5897 5898 5899 5901 5902 5904 5905 5906 5907 5909 5910 5912 5913
5776 5775 5773 5771 5770 5769 5767 5766 5765 5764 5763 5762 5762 5761 5761 5761 5762 5762 5763 5763 5764 5764 5765 5765 5766 5768 5770 5772 5773 5775 5776 5778 5780 5783 5785 5788 5790 5792 5795 5798 5801 5805 5809 5813 5816 5818 5820 5823 5826 5830 5835 5838 5840 5842 5846 5850 5854 5855 5855 5857 5860 5862 5865 5867 5869 5871 5874 5877 5881 5882 5884 5886 5889 5891 5893 5894 5896 5898 5900 5901 5903 5904 5906 5907 5908 5909 5911 5912
5776 5775 5773 5772 5771 5769 5768 5767 5766 5765 5765 5764 5764 5763 5763 5763 5764 5764 5764 5765 5765 5765 5766 5766 5767 5768 5770 5772 5773 5775 5776 5777 5780 5782 5784 5787 5789 5791 5793 5796 5800 5803 5807 5811 5814 5815 5818 5821 5825 5830 5833 5836 5837 5839 5842 5846 5849 5849 5850 5853 5856 5858 5861 5863 5865 5867 5871 5876 5879 5880 5882 5884 5887 5889 5890 5892 5894 5896 5898 5900 5902 5903 5904 5906 5906 5908 5909 5910
5776 5775 5773 5772 5771 5770 5769 5767 5767 5766 5766 5766 5765 5765 5765 5765 5765 5766 5766 5766 5766 5766 5766 5767 5768 5769 5771 5772 5773 5775 5776 5777 5779 5781 5783 5785 5787 5790 5792 5795 5798 5801 5805 5808 5810 5813 5816 5820 5824 5828 5831 5832 5834 5837 5840 5843 5845 5846 5847 5850 5852 5854 5857 5859 5861 5864 5869 5874 5876 5878 5879 5881 5884 5886 5887 5890 5892 5894 5896 5898 5900 5902 5903 5904 5904 5906 5908 5909
5775 5774 5773 5772 5771 5771 5769 5768 5767 5767 5767 5767 5767 5766 5766 5766 5767 5767 5767 5767 5767 5767 5767 5767 5768 5770 5771 5771 5772 5774 5775 5777 5778 5780 5783 5784 5786 5788 5790 5793 5797 5800 5803 5805 5807 5810 5814 5818 5822 5825 5827 5829 5832 5836 5839 5841 5843 5845 5847 5849 5851 5853 5856 5858 5860 5864 5869 5873 5874 5875 5876 5879 5882 5884 5886 5889 5891 5892 5895 5896 5898 5900 5901 5903 5904 5905 5907 5908
5775 5774 5773 5772 5771 5771 5770 5769 5768 5768 5767 5767 5767 5767 5767 5767 5767 5768 5768 5768 5768 5767 5767 5768 5768 5770 5771 5771 5772 5773 5774 5776 5778 5779 5781 5783 5784 5786 5789 5792 5795 5798 5801 5802 5804 5808 5812 5815 5819 5822 5824 5827 5830 5833 5836 5838 5841 5843 5844 5846 5848 5851 5855 5858 5860 5864 5869 5872 5872 5872 5874 5878 5883 5884 5885 5888 5889 5891 5893 5895 5897 5899 5901 5903 5904 5905 5906 5907
5774 5773 5772 5771 5771 5771 5770 5769 5769 5768 5768 5767 5767 5767 5767 5767 5768 5768 5769 5768 5768 5768 5768 5768 5769 5770 5771 5772 5772 5773 5775 5776 5777 5778 5780 5781 5783 5785 5787 5789 5792 5795 5798 5800 5803 5806 5809 5813 5816 5818 5821 5825 5827 5830 5833 5835 5838 5839 5841 5842 5846 5850 5853 5856 5858 5861 5865 5867 5867 5869 5873 5878 5881 5882 5883 5885 5887 5889 5891 5894 5896 5897 5899 5901 5903 5904 5905 5906
5773 5773 5772 5771 5770 5770 5770 5769 5769 5768 5768 5767 5767 5767 5767 5767 5767 5768 5769 5769 5769 5769 5769 5769 5769 5770 5771 5772 5773 5774 5775 5776 5776 5777 5779 5780 5782 5783 5784 5787 5789 5792 5795 5798 5800 5803 5807 5810 5813 5816 5819 5822 5825 5827 5830 5832 5835 5837 5839 5841 5845 5847 5849 5852 5855 5857 5861 5863 5864 5866 5870 5875 5878 5879 5881 5883 5885 5887 5889 5892 5894 5895 5897 5898 5900 5902 5903 5905
5773 5772 5771 5771 5770 5770 5770 5769 5769 5769 5768 5768 5767 5767 5767 5767 5767 5768 5768 5768 5768 5769 5769 5770 5770 5771 5772 5772 5773 5774 5775 5776 5776 5777 5778 5779 5780 5782 5783 5785 5787 5790 5793 5796 5798 5801 5805 5808 5811 5814 5816 5819 5823 5825 5827 5829 5832 5835 5838 5840 5843 5844 5846 5849 5851 5854 5857 5860 5862 5864 5867 5872 5875 5878 5880 5882 5884 5886 5888 5890 5892 5893 5895 5896 5898 5900 5901 5904
5772 5771 5771 5771 5770 5770 5770 5769 5769 5769 5768 5768 5767 5767 5767 5767 5767 5767 5767 5768 5768 5768 5769 5770 5771 5771 5772 5773 5773 5774 5775 5776 5776 5777 5778 5779 5780 5781 5783 5784 5786 5788 5791 5793 5796 5799 5803 5806 5808 5811 5815 5817 5820 5822 5824 5826 5829 5832 5835 5837 5840 5842 5845 5847 5849 5852 5854 5857 5861 5864 5866 5869 5873 5876 5878 5880 5882 5885 5887 5889 5890 5891 5893 5895 5896 5898 5900 5902
5771 5771 5771 5770 5770 5770 5769 5769 5769 5768 5768 5768 5767 5767 5767 5767 5767 5767 5767 5767 5767 5768 5769 5770 5771 5772 5772 5773 5773 5774 5775 5776 5776 5777 5778 5779 5780 5781 5782 5784 5786 5788 5790 5792 5794 5797 5800 5803 5806 5810 5813 5816 5818 5819 5821 5824 5827 5830 5832 5834 5837 5840 5842 5845 5847 5849 5852 5855 5858 5862 5864 5868 5871 5874 5876 5878 5880 5883 5885 5887 5889 5890 5892 5893 5895 5896 5898 5900
5770 5770 5770 5770 5770 5770 5769 5769 5769 5768 5768 5768 5767 5767 5767 5767 5767 5767 5766 5766 5767 5767 5768 5769 5770 5771 5772 5773 5773 5774 5775 5775 5776 5777 5778 5778 5779 5780 5782 5783 5785 5787 5789 5791 5793 5795 5798 5801 5804 5808 5811 5813 5815 5817 5820 5822 5824 5827 5830 5833 5835 5837 5840 5843 5844 5846 5849 5852 5855 5859 5863 5866 5870 5872 5875 5877 5878 5881 5884 5885 5887 5889 5890 5891 5893 5894 5896 5898
5770 5770 5770 5770 5770 5769 5769 5769 5768 5768 5768 5767 5767 5767 5767 5767 5767 5767 5766 5766 5766 5766 5767 5769 5770 5771 5772 5773 5773 5774 5775 5775 5776 5776 5777 5777 5778 5780 5781 5783 5784 5786 5788 5790 5792 5794 5796 5799 5802 5805 5808 5810 5813 5816 5818 5820 5822 5825 5827 5830 5833 5835 5838 5840 5842 5844 5847 5849 5852 5857 5860 5864 5867 5870 5873 5875 5877 5879 5882 5883 5885 5887 5888 5889 5890 5891 5893 5895
5769 5769 5769 5769 5769 5769 5768 5768 5768 5768 5768 5767 5767 5767 5767 5767 5767 5767 5766 5766 5766 5766 5766 5767 5768 5770 5771 5772 5773 5774 5775 5775 5776 5776 5776 5777 5778 5779 5781 5782 5783 5785 5787 5789 5791 5793 5795 5798 5800 5803 5805 5808 5811 5813 5815 5817 5820 5822 5825 5827 5830 5833 5835 5838 5840 5843 5845 5847 5850 5853 5856 5860 5864 5867 5870 5872 5874 5876 5879 5881 5883 5885 5886 5887 5888 5890 5891 5893
5767 5767 5767 5768 5768 5768 5768 5768 5767 5768 5768 5767 5767 5767 5767 5767 5766 5766 5766 5766 5766 5765 5766 5766 5767 5768 5769 5770 5772 5773 5774 5775 5775 5775 5776 5776 5777 5779 5780 5782 5783 5784 5786 5788 5790 5792 5794 5796 5798 5801 5803 5805 5808 5810 5812 5815 5817 5820 5823 5825 5828 5830 5832 5835 5837 5840 5842 5844 5847 5850 5853 5856 5860 5864 5867 5870 5872 5874 5876 5878 5881 5883 5884 5886 5887 5888 5889 5891
5766 5766 5766 5766 5766 5767 5767 5767 5767 5767 5767 5767 5766 5766 5766 5766 5766 5766 5766 5766 5766 5765 5765 5765 5766 5766 5768 5769 5770 5771 5772 5773 5774 5775 5775 5775 5776 5778 5780 5781 5783 5784 5785 5787 5789 5791 5793 5795 5797 5799 5801 5803 5805 5807 5809 5812 5815 5818 5820 5823 5825 5828 5830 5832 5834 5836 5839 5841 5844 5847 5850 5853 5856 5860 5863 5866 5869 5871 5873 5876 5878 5880 5882 5884 5885 5886 5887 5889
5766 5765 5765 5765 5766 5766 5766 5766 5766 5767 5767 5767 5766 5766 5766 5766 5766 5766 5766 5766 5766 5765 5765 5764 5764 5765 5766 5768 5769 5769 5771 5772 5773 5773 5774 5774 5775 5776 5778 5780 5782 5783 5785 5786 5788 5789 5791 5793 5795 5797 5798 5800 5803 5805 5807 5810 5813 5815 5818 5820 5822 5825 5827 5829 5831 5833 5836 5839 5842 5845 5848 5850 5853 5856 5859 5862 5865 5868 5871 5873 5875 5877 5879 5881 5883 5884 5885 5886
5765 5765 5765 5765 5765 5765 5765 5765 5765 5766 5766 5766 5766 5765 5765 5765 5765 5765 5765 5765 5765 5765 5764 5764 5764 5764 5765 5766 5767 5767 5768 5770 5771 5772 5772 5773 5774 5775 5777 5779 5781 5782 5784 5785 5787 5788 5790 5791 5793 5795 5795 5797 5799 5801 5804 5807 5810 5813 5815 5817 5819 5822 5824 5827 5829 5831 5833 5836 5839 5842 5845 5848 5851 5853 5856 5859 5861 5864 5867 5869 5871 5873 5876 5878 5880 5881 5882 5884
5764 5764 5764 5764 5764 5765 5765 5764 5765 5765 5765 5766 5766 5765 5765 5765 5765 5765 5765 5765 5764 5764 5764 5763 5763 5763 5764 5764 5765 5766 5766 5767 5768 5769 5770 5771 5772 5773 5775 5777 5779 5780 5782 5783 5785 5786 5788 5789 5791 5792 5793 5794 5796 5799 5801 5804 5807 5810 5812 5815 5817 5820 5822 5824 5827 5829 5831 5834 5837 5840 5843 5846 5848 5850 5852 5855 5858 5861 5863 5866 5868 5870 5872 5875 5877 5878 5880 5881
5763 5762 5763 5763 5763 5764 5764 5764 5764 5764 5764 5764 5764 5764 5764 5764 5763 5763 5764 5764 5763 5763 5763 5763 5763 5762 5762 5763 5764 5764 5765 5765 5765 5766 5767 5768 5770 5772 5773 5775 5777 5778 5780 5781 5783 5784 5786 5788 5789 5790 5792 5793 5794 5796 5799 5802 5804 5807 5810 5812 5815 5817 5819 5822 5824 5826 5828 5831 5834 5837 5839 5842 5845 5847 5849 5852 5855 5858 5860 5863 5865 5867 5869 5871 5873 5875 5877 5878
5762 5761 5761 5762 5762 5763 5763 5763 5763 5763 5763 5763 5763 5763 5763 5763 5763 5763 5763 5763 5763 5762 5762 5762 5762 5762 5762 5762 5762 5763 5763 5764 5764 5764 5764 5765 5767 5769 5771 5772 5774 5776 5777 5779 5780 5782 5784 5785 5786 5788 5790 5791 5793 5795 5797 5800 5802 5804 5807 5810 5812 5815 5817 5819 5821 5823 5826 5828 5831 5833 5836 5838 5841 5844 5846 5849 5852 5855 5858 5860 5863 5865 5866 5868 5870 5871 5873 5875
5761 5761 5760 5760 5761 5761 5762 5762 5762 5762 5762 5762 5762 5762 5762 5762 5762 5762 5762 5762 5762 5762 5762 5761 5761 5762 5762 5762 5761 5762 5762 5762 5762 5762 5763 5763 5764 5766 5768 5770 5772 5773 5775 5776 5777 5779 5781 5782 5784 5786 5788 5789 5790 5792 5795 5798 5800 5802 5805 5808 5810 5812 5814 5816 5818 5820 5822 5825 5827 5829 5832 5836 5838 5841 5844 5846 5849 5852 5855 5857 5860 5862 5863 5865 5867 5868 5869 5871
5760 5760 5760 5759 5760 5760 5761 5761 5760 5761 5761 5761 5761 5761 5761 5761 5761 5761 5761 5761 5761 5761 5761 5761 5761 5761 5761 5761 5761 5761 5761 5761 5762 5762 5762 5762 5763 5764 5766 5767 5769 5770 5772 5773 5774 5776 5778 5780 5781 5783 5785 5786 5787 5789 5792 5795 5797 5799 5802 5804 5806 5809 5811 5812 5815 5817 5819 5822 5824 5826 5829 5832 5834 5837 5841 5843 5846 5849 5852 5854 5856 5858 5860 5862 5863 5865 5867 5868